When you browse on this site, cookies collect data to enhance your experience and personalize the content and advertising you see.
Visit our Privacy Policy to learn more. By continuing to use the site, you agree to this use of cookies and data.
  • In Switzerland
  • List of Countries
  • For 7 days
  • Water Temperature
  • Weather Map
  • Weather Widgets
  • user-avatar
    Login

    Hourly Weather San Luis

    Today, 21 November, Thursday

    Time Temperature Precipitation Wind Pressure Humidity
    00:00 +27°C° 0.3 mm 3 mps 696 mmHg 56%
    01:00 +26°C° 0.3 mm 3 mps 695 mmHg 59%
    02:00 +26°C° 0.3 mm 2 mps 695 mmHg 61%
    03:00 +25°C° 0.1 mm 2 mps 695 mmHg 63%
    04:00 +25°C° 0.1 mm 2 mps 695 mmHg 65%
    05:00 +25°C° 0.1 mm 2 mps 695 mmHg 67%
    06:00 +26°C° 0.1 mm 3 mps 695 mmHg 62%
    07:00 +28°C° 0.1 mm 3 mps 696 mmHg 57%
    08:00 +30°C° 0.1 mm 4 mps 697 mmHg 52%
    09:00 +32°C° 0 mm 4 mps 697 mmHg 47%
    10:00 +34°C° 0 mm 4 mps 696 mmHg 42%
    11:00 +35°C° 0 mm 4 mps 696 mmHg 37%
    12:00 +35°C° 0.4 mm 3 mps 696 mmHg 39%
    13:00 +34°C° 0.4 mm 3 mps 695 mmHg 42%
    14:00 +34°C° 0.4 mm 3 mps 694 mmHg 44%
    15:00 +33°C° 0.5 mm 4 mps 694 mmHg 45%
    16:00 +30°C° 0.5 mm 6 mps 693 mmHg 46%
    17:00 +29°C° 0.5 mm 7 mps 693 mmHg 48%
    18:00 +27°C° 2.2 mm 8 mps 693 mmHg 59%
    19:00 +24°C° 2.2 mm 10 mps 694 mmHg 71%
    20:00 +22°C° 2.2 mm 11 mps 694 mmHg 83%
    21:00 +22°C° 5.6 mm 10 mps 695 mmHg 81%
    22:00 +21°C° 5.6 mm 10 mps 696 mmHg 80%
    23:00 +21°C° 5.6 mm 9 mps 697 mmHg 79%

    Tomorrow, 22 November, Friday

    Time Temperature Precipitation Wind Pressure Humidity
    00:00 +21°C° 0.1 mm 7 mps 697 mmHg 77%
    01:00 +21°C° 0.1 mm 5 mps 697 mmHg 76%
    02:00 +21°C° 0.1 mm 2 mps 697 mmHg 74%
    03:00 +21°C° 0 mm 2 mps 697 mmHg 78%
    04:00 +20°C° 0 mm 2 mps 697 mmHg 81%
    05:00 +19°C° 0 mm 2 mps 697 mmHg 85%
    06:00 +21°C° 0 mm 3 mps 698 mmHg 80%
    07:00 +22°C° 0 mm 5 mps 698 mmHg 75%
    08:00 +23°C° 0 mm 6 mps 699 mmHg 70%
    09:00 +24°C° 0 mm 6 mps 699 mmHg 67%
    10:00 +26°C° 0 mm 7 mps 699 mmHg 64%
    11:00 +27°C° 0 mm 7 mps 700 mmHg 61%
    12:00 +28°C° 0 mm 8 mps 699 mmHg 58%
    13:00 +29°C° 0 mm 8 mps 699 mmHg 54%
    14:00 +31°C° 0 mm 8 mps 699 mmHg 51%
    15:00 +31°C° 0.1 mm 9 mps 698 mmHg 52%
    16:00 +29°C° 0.1 mm 9 mps 698 mmHg 53%
    17:00 +29°C° 0.1 mm 9 mps 697 mmHg 54%
    18:00 +28°C° 0 mm 9 mps 697 mmHg 57%
    19:00 +27°C° 0 mm 9 mps 697 mmHg 61%
    20:00 +24°C° 0 mm 8 mps 698 mmHg 65%
    21:00 +24°C° 0.8 mm 7 mps 698 mmHg 68%
    22:00 +23°C° 0.8 mm 7 mps 698 mmHg 71%
    23:00 +23°C° 0.8 mm 6 mps 698 mmHg 74%

    Day after tomorrow, 23 November, Saturday

    Time Temperature Precipitation Wind Pressure Humidity
    00:00 +22°C° 1.8 mm 5 mps 698 mmHg 77%
    01:00 +22°C° 1.8 mm 5 mps 697 mmHg 79%
    02:00 +22°C° 1.8 mm 4 mps 697 mmHg 81%
    03:00 +21°C° 1.1 mm 4 mps 697 mmHg 81%
    04:00 +21°C° 1.1 mm 4 mps 697 mmHg 81%
    05:00 +21°C° 1.1 mm 4 mps 697 mmHg 81%
    06:00 +23°C° 0.1 mm 5 mps 697 mmHg 74%
    07:00 +26°C° 0.1 mm 6 mps 697 mmHg 67%
    08:00 +27°C° 0.1 mm 7 mps 698 mmHg 60%
    09:00 +28°C° 0.1 mm 7 mps 698 mmHg 58%
    10:00 +28°C° 0.1 mm 7 mps 697 mmHg 56%
    11:00 +29°C° 0.1 mm 8 mps 697 mmHg 53%
    12:00 +31°C° 0.2 mm 8 mps 697 mmHg 50%
    13:00 +32°C° 0.2 mm 8 mps 696 mmHg 47%
    14:00 +34°C° 0.2 mm 8 mps 696 mmHg 43%
    15:00 +33°C° 0 mm 8 mps 695 mmHg 44%
    16:00 +33°C° 0 mm 8 mps 694 mmHg 44%
    17:00 +33°C° 0 mm 7 mps 694 mmHg 45%
    18:00 +32°C° 0 mm 7 mps 694 mmHg 49%
    19:00 +29°C° 0 mm 6 mps 694 mmHg 54%
    20:00 +28°C° 0 mm 6 mps 694 mmHg 58%
    21:00 +27°C° 0 mm 6 mps 693 mmHg 59%
    22:00 +27°C° 0 mm 6 mps 693 mmHg 60%
    23:00 +26°C° 0 mm 6 mps 693 mmHg 61%

    24 November, Sunday

    Time Temperature Precipitation Wind Pressure Humidity
    00:00 +26°C° 0 mm 7 mps 693 mmHg 61%
    01:00 +26°C° 0 mm 8 mps 692 mmHg 60%
    02:00 +26°C° 0 mm 9 mps 691 mmHg 59%
    03:00 +26°C° 0 mm 9 mps 691 mmHg 61%
    04:00 +24°C° 0 mm 9 mps 691 mmHg 62%
    05:00 +24°C° 0 mm 9 mps 691 mmHg 64%
    06:00 +26°C° 0 mm 9 mps 691 mmHg 61%
    07:00 +27°C° 0 mm 10 mps 691 mmHg 58%
    08:00 +28°C° 0 mm 10 mps 691 mmHg 55%
    09:00 +29°C° 0.1 mm 9 mps 691 mmHg 53%
    10:00 +31°C° 0.1 mm 9 mps 691 mmHg 51%
    11:00 +32°C° 0.1 mm 8 mps 691 mmHg 49%
    12:00 +30°C° 0.8 mm 6 mps 691 mmHg 54%
    13:00 +29°C° 0.8 mm 5 mps 690 mmHg 59%
    14:00 +28°C° 0.8 mm 4 mps 690 mmHg 64%
    15:00 +28°C° 1.4 mm 4 mps 689 mmHg 64%
    16:00 +28°C° 1.4 mm 5 mps 689 mmHg 64%
    17:00 +28°C° 1.4 mm 5 mps 689 mmHg 64%
    18:00 +26°C° 4.6 mm 5 mps 689 mmHg 72%
    19:00 +25°C° 4.6 mm 4 mps 689 mmHg 80%
    20:00 +22°C° 4.6 mm 4 mps 689 mmHg 88%
    21:00 +21°C° 5.7 mm 5 mps 690 mmHg 83%
    22:00 +20°C° 5.7 mm 6 mps 691 mmHg 78%
    23:00 +18°C° 5.7 mm 7 mps 692 mmHg 73%

    25 November, Monday

    Time Temperature Precipitation Wind Pressure Humidity
    00:00 +19°C° 0 mm 6 mps 692 mmHg 75%
    01:00 +17°C° 0 mm 5 mps 692 mmHg 76%
    02:00 +18°C° 0 mm 4 mps 692 mmHg 77%
    03:00 +18°C° 0 mm 4 mps 692 mmHg 79%
    04:00 +18°C° 0 mm 4 mps 693 mmHg 80%
    05:00 +17°C° 0 mm 4 mps 693 mmHg 81%
    06:00 +17°C° 0.2 mm 5 mps 694 mmHg 77%
    07:00 +19°C° 0.2 mm 5 mps 695 mmHg 73%
    08:00 +20°C° 0.2 mm 6 mps 696 mmHg 68%
    09:00 +21°C° 0.1 mm 6 mps 696 mmHg 67%
    10:00 +21°C° 0.1 mm 7 mps 696 mmHg 66%
    11:00 +21°C° 0.1 mm 8 mps 696 mmHg 65%
    12:00 +21°C° 0.1 mm 8 mps 696 mmHg 63%
    13:00 +21°C° 0.1 mm 8 mps 696 mmHg 61%
    14:00 +19°C° 0.1 mm 9 mps 695 mmHg 58%
    15:00 +19°C° 0 mm 9 mps 695 mmHg 56%
    16:00 +19°C° 0 mm 9 mps 695 mmHg 53%
    17:00 +19°C° 0 mm 9 mps 695 mmHg 50%
    18:00 +18°C° 0 mm 9 mps 696 mmHg 50%
    19:00 +17°C° 0 mm 9 mps 696 mmHg 50%
    20:00 +15°C° 0 mm 8 mps 697 mmHg 50%
    21:00 +15°C° 0 mm 8 mps 697 mmHg 51%
    22:00 +14°C° 0 mm 7 mps 697 mmHg 52%
    23:00 +14°C° 0 mm 7 mps 697 mmHg 53%

    26 November, Tuesday

    Time Temperature Precipitation Wind Pressure Humidity
    00:00 +13°C° 0 mm 6 mps 697 mmHg 53%
    01:00 +13°C° 0 mm 6 mps 697 mmHg 53%
    02:00 +13°C° 0 mm 5 mps 697 mmHg 53%
    03:00 +12°C° 0 mm 5 mps 697 mmHg 50%
    04:00 +12°C° 0 mm 4 mps 697 mmHg 48%
    05:00 +12°C° 0 mm 4 mps 697 mmHg 45%
    06:00 +14°C° 0 mm 4 mps 698 mmHg 38%
    07:00 +16°C° 0 mm 5 mps 699 mmHg 31%
    08:00 +17°C° 0 mm 5 mps 700 mmHg 24%
    09:00 +19°C° 0 mm 5 mps 700 mmHg 22%
    10:00 +21°C° 0 mm 4 mps 700 mmHg 21%
    11:00 +22°C° 0 mm 4 mps 700 mmHg 20%
    12:00 +24°C° 0 mm 3 mps 699 mmHg 20%
    13:00 +24°C° 0 mm 3 mps 699 mmHg 20%
    14:00 +25°C° 0 mm 2 mps 698 mmHg 20%
    15:00 +25°C° 0 mm 2 mps 697 mmHg 21%
    16:00 +25°C° 0 mm 3 mps 697 mmHg 23%
    17:00 +25°C° 0 mm 3 mps 696 mmHg 24%
    18:00 +24°C° 0 mm 3 mps 696 mmHg 32%
    19:00 +21°C° 0 mm 3 mps 696 mmHg 39%
    20:00 +19°C° 0 mm 4 mps 696 mmHg 46%
    21:00 +19°C° 0 mm 4 mps 697 mmHg 51%
    22:00 +17°C° 0 mm 5 mps 697 mmHg 57%
    23:00 +16°C° 0 mm 6 mps 697 mmHg 62%
    Show more